CW3996 Weather Reports


Display with metric or nautical units.
time (UTC)temp
F
wind
direction
speed
MPH
gust
MPH
rain 1hr
in
rain 24hr
in
rain mn
in
humidity
%
barometer
mb
20260905211715 87 210 11.0 17.0 0.00 0.00 0.00 4 1016.9
20260905211214 88 173 11.0 17.0 0.00 0.00 0.00 4 1017.0
20260905210727 88 203 11.0 25.0 0.00 0.00 0.00 4 1017.0
20260905210223 87 225 12.0 25.0 0.00 0.00 0.00 4 1017.1
20260905205715 87 196 12.0 21.0 0.00 0.00 0.00 4 1017.2
20260905205250 87 207 7.0 23.0 0.00 0.00 0.00 5 1017.3
20260905204742 87 203 15.0 23.0 0.00 0.00 0.00 3 1017.4
20260905204215 88 216 15.0 23.0 0.00 0.00 0.00 3 1017.3
20260905203729 87 199 8.0 18.0 0.00 0.00 0.00 5 1017.4
20260905203223 87 214 14.0 18.0 0.00 0.00 0.00 3 1017.5
20260905202721 87 215 9.0 19.0 0.00 0.00 0.00 5 1017.5
20260905202215 86 188 9.0 17.0 0.00 0.00 0.00 3 1017.5
20260905201728 87 209 12.0 27.0 0.00 0.00 0.00 3 1017.6
20260905201223 86 216 12.0 27.0 0.00 0.00 0.00 4 1017.6
20260905200716 86 221 8.0 22.0 0.00 0.00 0.00 5 1017.6
20260905200252 86 180 14.0 22.0 0.00 0.00 0.00 4 1017.6
20260905195725 86 210 12.0 22.0 0.00 0.00 0.00 5 1017.6
20260905195219 86 211 16.0 22.0 0.00 0.00 0.00 4 1017.7
20260905194717 86 166 9.0 21.0 0.00 0.00 0.00 5 1017.8
20260905194232 85 157 12.0 21.0 0.00 0.00 0.00 5 1017.9
20260905193724 84 163 11.0 21.0 0.00 0.00 0.00 5 1018.0
20260905193219 85 181 13.0 21.0 0.00 0.00 0.00 4 1018.1
20260905192732 85 196 11.0 19.0 0.00 0.00 0.00 5 1018.1
20260905192225 85 200 10.0 20.0 0.00 0.00 0.00 4 1018.2
20260905191740 85 205 15.0 20.0 0.00 0.00 0.00 5 1018.3
20260905191233 84 191 11.0 21.0 0.00 0.00 0.00 5 1018.3
20260905190726 84 221 15.0 20.0 0.00 0.00 0.00 5 1018.5
20260905190242 83 193 15.0 20.0 0.00 0.00 0.00 4 1018.5
20260905185718 84 213 9.0 24.0 0.00 0.00 0.00 6 1018.5
20260905185233 83 218 16.0 24.0 0.00 0.00 0.00 5 1018.7
20260905184727 83 194 10.0 19.0 0.00 0.00 0.00 5 1018.8
20260905184222 83 221 13.0 19.0 0.00 0.00 0.00 5 1018.8
20260905183716 82 194 12.0 22.0 0.00 0.00 0.00 5 1019.0
20260905183230 82 196 9.0 22.0 0.00 0.00 0.00 5 1019.0
20260905182745 82 215 13.0 22.0 0.00 0.00 0.00 6 1019.1
20260905182218 82 203 14.0 20.0 0.00 0.00 0.00 5 1019.2
20260905181716 82 209 13.0 16.0 0.00 0.00 0.00 6 1019.2
20260905181230 81 207 8.0 18.0 0.00 0.00 0.00 8 1019.5
20260905180724 81 177 6.0 23.0 0.00 0.00 0.00 7 1019.5
20260905180240 81 209 10.0 23.0 0.00 0.00 0.00 7 1019.6
20260905175732 81 206 12.0 22.0 0.00 0.00 0.00 7 1019.5
20260905175226 80 191 11.0 20.0 0.00 0.00 0.00 8 1019.6
20260905174720 80 168 10.0 25.0 0.00 0.00 0.00 7 1019.5
20260905174214 80 225 16.0 25.0 0.00 0.00 0.00 7 1019.7
20260905173728 80 216 15.0 21.0 0.00 0.00 0.00 7 1019.7
20260905173226 79 205 9.0 20.0 0.00 0.00 0.00 8 1019.6
20260905172720 79 203 12.0 20.0 0.00 0.00 0.00 7 1019.7
20260905172214 79 163 11.0 19.0 0.00 0.00 0.00 7 1019.7
20260905171728 79 209 14.0 19.0 0.00 0.00 0.00 6 1019.7
20260905171222 79 204 12.0 22.0 0.00 0.00 0.00 8 1019.7
20260905170716 79 202 13.0 22.0 0.00 0.00 0.00 7 1019.7
20260905170231 79 195 14.0 22.0 0.00 0.00 0.00 7 1019.7
20260905165728 79 213 12.0 17.0 0.00 0.00 0.00 8 1019.6
20260905165222 78 182 9.0 22.0 0.00 0.00 0.00 10 1019.6
20260905164715 78 213 12.0 23.0 0.00 0.00 0.00 9 1019.6
20260905164230 78 207 15.0 23.0 0.00 0.00 0.00 10 1019.6
20260905163723 78 206 12.0 19.0 0.00 0.00 0.00 10 1019.6
20260905163217 78 211 10.0 16.0 0.00 0.00 0.00 13 1019.6
20260905162731 77 194 7.0 16.0 0.00 0.00 0.00 13 1019.5
20260905162246 77 211 10.0 19.0 0.00 0.00 0.00 12 1019.5
20260905161718 76 204 12.0 19.0 0.00 0.00 0.00 14 1019.5
20260905161216 76 202 10.0 16.0 0.00 0.00 0.00 14 1019.5
20260905160730 76 202 12.0 16.0 0.00 0.00 0.00 13 1019.5
20260905160225 76 202 8.0 12.0 0.00 0.00 0.00 15 1019.4
20260905155718 76 190 7.0 13.0 0.00 0.00 0.00 14 1019.4
20260905155233 76 181 6.0 15.0 0.00 0.00 0.00 16 1019.3
20260905154725 75 181 8.0 15.0 0.00 0.00 0.00 15 1019.3
20260905154219 75 187 6.0 14.0 0.00 0.00 0.00 16 1019.2
20260905153732 75 188 7.0 14.0 0.00 0.00 0.00 16 1019.3
20260905153231 75 191 6.0 13.0 0.00 0.00 0.00 16 1019.3
20260905152724 75 190 8.0 12.0 0.00 0.00 0.00 16 1019.3
20260905152218 74 170 7.0 11.0 0.00 0.00 0.00 17 1019.3
20260905151732 74 169 5.0 11.0 0.00 0.00 0.00 17 1019.3
20260905151226 74 169 8.0 14.0 0.00 0.00 0.00 17 1019.3
20260905150719 73 162 7.0 14.0 0.00 0.00 0.00 17 1019.3
20260905150216 73 146 6.0 12.0 0.00 0.00 0.00 17 1019.3
20260905145729 73 151 5.0 12.0 0.00 0.00 0.00 17 1019.2
20260905145227 73 150 6.0 12.0 0.00 0.00 0.00 18 1019.2
20260905144721 72 137 4.0 11.0 0.00 0.00 0.00 19 1019.2
20260905144215 71 118 5.0 9.0 0.00 0.00 0.00 19 1019.2
20260905143748 70 114 4.0 8.0 0.00 0.00 0.00 23 1019.1
20260905143227 69 114 4.0 8.0 0.00 0.00 0.00 23 1019.1
20260905142721 68 114 6.0 10.0 0.00 0.00 0.00 23 1019.1
20260905142216 68 114 7.0 10.0 0.00 0.00 0.00 23 1019.0
20260905141729 67 114 6.0 8.0 0.00 0.00 0.00 24 1018.9
20260905141223 68 114 4.0 8.0 0.00 0.00 0.00 23 1018.9
20260905140717 68 114 4.0 10.0 0.00 0.00 0.00 23 1018.9
20260905140233 67 115 3.0 10.0 0.00 0.00 0.00 23 1018.8
20260905135726 67 114 6.0 10.0 0.00 0.00 0.00 23 1018.8
20260905135224 64 100 3.0 10.0 0.00 0.00 0.00 25 1018.7
20260905134718 65 96 3.0 9.0 0.00 0.00 0.00 25 1018.6
20260905134232 64 96 4.0 9.0 0.00 0.00 0.00 25 1018.5
20260905133725 64 161 4.0 9.0 0.00 0.00 0.00 25 1018.5
20260905133219 64 161 5.0 7.0 0.00 0.00 0.00 25 1018.4
20260905132733 65 164 4.0 8.0 0.00 0.00 0.00 24 1018.3
20260905132227 65 164 5.0 8.0 0.00 0.00 0.00 24 1018.3
20260905131725 65 164 4.0 8.0 0.00 0.00 0.00 24 1018.2
20260905131219 65 164 5.0 9.0 0.00 0.00 0.00 23 1018.1
20260905130753 65 164 6.0 9.0 0.00 0.00 0.00 22 1018.0
20260905130228 65 164 5.0 9.0 0.00 0.00 0.00 22 1017.9
20260905125721 66 164 5.0 9.0 0.00 0.00 0.00 22 1017.9
20260905125235 66 163 5.0 9.0 0.00 0.00 0.00 21 1017.9
20260905124748 67 163 5.0 10.0 0.00 0.00 0.00 20 1017.8
20260905124221 66 163 6.0 10.0 0.00 0.00 0.00 21 1017.7
20260905123715 66 163 6.0 11.0 0.00 0.00 0.00 22 1017.7
20260905123249 66 163 6.0 10.0 0.00 0.00 0.00 21 1017.7
20260905122726 66 163 7.0 10.0 0.00 0.00 0.00 21 1017.6
20260905122221 65 161 7.0 10.0 0.00 0.00 0.00 23 1017.7
20260905121714 65 161 7.0 10.0 0.00 0.00 0.00 21 1017.6
20260905121248 66 160 6.0 10.0 0.00 0.00 0.00 21 1017.7
20260905120722 66 159 6.0 11.0 0.00 0.00 0.00 21 1017.7
20260905120218 66 159 7.0 11.0 0.00 0.00 0.00 20 1017.7
20260905115730 66 161 6.0 10.0 0.00 0.00 0.00 19 1017.7
20260905115224 65 161 5.0 10.0 0.00 0.00 0.00 20 1017.7
20260905114718 65 161 6.0 8.0 0.00 0.00 0.00 20 1017.7
20260905114216 65 161 6.0 8.0 0.00 0.00 0.00 21 1017.7
20260905113730 64 161 6.0 7.0 0.00 0.00 0.00 21 1017.7
20260905113244 64 161 5.0 8.0 0.00 0.00 0.00 22 1017.6
20260905112717 64 161 6.0 8.0 0.00 0.00 0.00 22 1017.7
20260905112231 65 161 5.0 8.0 0.00 0.00 0.00 21 1017.6
20260905111725 66 161 5.0 10.0 0.00 0.00 0.00 21 1017.7
20260905111239 67 161 6.0 10.0 0.00 0.00 0.00 19 1017.6
20260905110732 67 161 7.0 11.0 0.00 0.00 0.00 19 1017.7
20260905110227 68 161 7.0 10.0 0.00 0.00 0.00 19 1017.7
20260905105725 68 160 7.0 12.0 0.00 0.00 0.00 19 1017.8
20260905105220 68 161 7.0 12.0 0.00 0.00 0.00 19 1017.7
20260905104753 67 159 7.0 11.0 0.00 0.00 0.00 20 1017.7
20260905104227 66 159 7.0 11.0 0.00 0.00 0.00 21 1017.8
20260905103720 66 161 6.0 9.0 0.00 0.00 0.00 22 1017.8
20260905103214 66 161 5.0 9.0 0.00 0.00 0.00 22 1017.8
20260905102728 67 161 5.0 8.0 0.00 0.00 0.00 21 1017.8
20260905102222 67 161 5.0 8.0 0.00 0.00 0.00 21 1017.8
20260905101716 67 161 5.0 8.0 0.00 0.00 0.00 21 1017.7
20260905101250 67 161 4.0 9.0 0.00 0.00 0.00 21 1017.6
20260905100727 67 161 5.0 9.0 0.00 0.00 0.00 21 1017.6
20260905100243 68 161 5.0 9.0 0.00 0.00 0.00 21 1017.6
20260905095716 68 161 5.0 8.0 0.00 0.00 0.00 21 1017.6
20260905095230 67 161 5.0 11.0 0.00 0.00 0.00 21 1017.5
20260905094724 68 161 5.0 11.0 0.00 0.00 0.00 21 1017.5
20260905094217 68 160 6.0 14.0 0.00 0.00 0.00 21 1017.5
20260905093731 68 160 7.0 14.0 0.00 0.00 0.00 21 1017.5
20260905093225 67 167 6.0 9.0 0.00 0.00 0.00 23 1017.4
20260905092723 67 167 5.0 8.0 0.00 0.00 0.00 23 1017.4
20260905092217 67 167 5.0 8.0 0.00 0.00 0.00 23 1017.5
20260905091730 66 167 5.0 9.0 0.00 0.00 0.00 23 1017.5
20260905091224 66 167 4.0 8.0 0.00 0.00 0.00 23 1017.4
20260905090718 67 167 3.0 8.0 0.00 0.00 0.00 22 1017.4
20260905090214 67 167 5.0 10.0 0.00 0.00 0.00 21 1017.4
20260905085728 68 167 6.0 10.0 0.00 0.00 0.00 21 1017.4
20260905085222 69 165 5.0 12.0 0.00 0.00 0.00 20 1017.4
20260905084720 69 164 6.0 12.0 0.00 0.00 0.00 19 1017.3
20260905084214 69 161 6.0 11.0 0.00 0.00 0.00 20 1017.4
20260905083728 70 157 5.0 10.0 0.00 0.00 0.00 19 1017.3
20260905083222 70 157 5.0 11.0 0.00 0.00 0.00 19 1017.3
20260905082716 70 158 7.0 11.0 0.00 0.00 0.00 18 1017.3
20260905082229 70 151 5.0 12.0 0.00 0.00 0.00 19 1017.3
20260905081723 71 151 6.0 12.0 0.00 0.00 0.00 18 1017.2
20260905081217 71 162 8.0 17.0 0.00 0.00 0.00 18 1017.2
20260905080714 71 173 9.0 17.0 0.00 0.00 0.00 17 1017.1
20260905080230 70 157 8.0 15.0 0.00 0.00 0.00 18 1017.1
20260905075723 70 165 8.0 13.0 0.00 0.00 0.00 18 1017.1
20260905075218 70 155 7.0 13.0 0.00 0.00 0.00 17 1017.1
20260905074731 71 183 9.0 17.0 0.00 0.00 0.00 17 1017.1
20260905074225 71 192 10.0 17.0 0.00 0.00 0.00 17 1017.1
20260905073719 70 185 10.0 15.0 0.00 0.00 0.00 17 1017.0
20260905073218 70 192 8.0 15.0 0.00 0.00 0.00 18 1017.0
20260905072732 70 189 8.0 15.0 0.00 0.00 0.00 18 1017.0
20260905072226 70 192 7.0 13.0 0.00 0.00 0.00 19 1016.9
20260905071720 71 194 7.0 13.0 0.00 0.00 0.00 18 1016.9
20260905071233 70 194 8.0 12.0 0.00 0.00 0.00 18 1016.9
20260905070727 70 190 7.0 11.0 0.00 0.00 0.00 19 1016.8
20260905070223 71 190 7.0 13.0 0.00 0.00 0.00 19 1016.8
20260905065716 71 196 7.0 13.0 0.00 0.00 0.00 19 1016.7
20260905065214 71 186 7.0 12.0 0.00 0.00 0.00 19 1016.6
20260905064728 72 180 8.0 15.0 0.00 0.00 0.00 19 1016.5
20260905064243 72 190 7.0 15.0 0.00 0.00 0.00 18 1016.4
20260905063715 72 183 9.0 15.0 0.00 0.00 0.00 19 1016.3
20260905063249 72 178 7.0 16.0 0.00 0.00 0.00 19 1016.2
20260905062721 72 165 9.0 16.0 0.00 0.00 0.00 19 1016.2
20260905062215 73 169 7.0 18.0 0.00 0.00 0.00 19 1016.1
20260905061749 73 182 9.0 18.0 0.00 0.00 0.00 19 1016.0
20260905061222 73 183 9.0 17.0 0.00 0.00 0.00 20 1016.0
20260905060716 73 196 9.0 17.0 0.00 0.00 0.00 20 1016.0
20260905060215 73 200 9.0 16.0 0.00 0.00 0.00 20 1015.9
20260905055728 73 175 9.0 16.0 0.00 0.00 0.00 20 1015.9
20260905055242 73 181 9.0 18.0 0.00 0.00 0.00 20 1015.9
20260905054715 73 158 8.0 15.0 0.00 0.00 0.00 20 1015.9
20260905054229 73 182 7.0 15.0 0.00 0.00 0.00 21 1015.9
20260905053723 73 178 9.0 14.0 0.00 0.00 0.00 21 1015.9
20260905053237 73 169 7.0 14.0 0.00 0.00 0.00 21 1015.9
20260905052730 73 169 8.0 15.0 0.00 0.00 0.00 20 1015.9
20260905052224 74 160 7.0 14.0 0.00 0.00 0.00 20 1015.9
20260905051739 74 166 7.0 15.0 0.00 0.00 0.00 20 1015.8
20260905051216 74 183 6.0 13.0 0.00 0.00 0.00 19 1015.8
20260905050750 74 165 8.0 14.0 0.00 0.00 0.00 20 1015.7
20260905050224 75 148 9.0 14.0 0.00 0.00 0.00 19 1015.7
20260905045718 74 157 9.0 15.0 0.00 0.00 0.00 19 1015.7
20260905045232 75 146 10.0 16.0 0.00 0.00 0.00 19 1015.6
20260905044726 74 182 9.0 19.0 0.00 0.00 0.00 19 1015.6
20260905044220 75 163 9.0 19.0 0.00 0.00 0.00 18 1015.5
20260905043714 75 162 10.0 21.0 0.00 0.00 0.00 18 1015.5
20260905043232 75 158 9.0 14.0 0.00 0.00 0.00 19 1015.6
20260905042725 75 144 9.0 14.0 0.00 0.00 0.00 18 1015.5
20260905042219 75 157 9.0 15.0 0.00 0.00 0.00 18 1015.5
20260905041714 75 164 9.0 14.0 0.00 0.00 0.00 18 1015.4
20260905040722 75 148 6.0 15.0 0.00 0.00 0.00 19 1015.4
20260905040218 75 148 9.0 15.0 0.00 0.00 0.00 17 1015.2
20260905035715 76 157 10.0 15.0 0.00 0.00 0.00 17 1015.2
20260905035229 76 154 8.0 15.0 0.00 0.00 0.00 17 1015.2
20260905034723 75 150 10.0 15.0 0.00 0.00 0.00 17 1015.2
20260905034216 76 155 8.0 16.0 0.00 0.00 0.00 17 1015.1
20260905033729 76 153 9.0 15.0 0.00 0.00 0.00 17 1015.0
20260905033223 76 157 11.0 15.0 0.00 0.00 0.00 17 1015.0
20260905032717 76 168 9.0 15.0 0.00 0.00 0.00 17 1014.9
20260905032231 76 173 9.0 15.0 0.00 0.00 0.00 17 1014.8
20260905031745 76 172 10.0 15.0 0.00 0.00 0.00 17 1014.8
20260905031219 76 167 10.0 15.0 0.00 0.00 0.00 17 1014.7
20260905030733 76 166 9.0 15.0 0.00 0.00 0.00 17 1014.7
20260905030228 76 184 7.0 15.0 0.00 0.00 0.00 17 1014.6
20260905025722 76 161 7.0 12.0 0.00 0.00 0.00 17 1014.5
20260905025216 76 159 7.0 14.0 0.00 0.00 0.00 17 1014.3
20260905024730 76 163 7.0 11.0 0.00 0.00 0.00 17 1014.3
20260905024224 76 171 6.0 8.0 0.00 0.00 0.00 17 1014.1
20260905023717 77 171 6.0 8.0 0.00 0.00 0.00 16 1014.1
20260905023215 77 173 6.0 10.0 0.00 0.00 0.00 16 1014.0
20260905022749 77 180 4.0 10.0 0.00 0.00 0.00 16 1014.0
20260905022222 77 192 5.0 9.0 0.00 0.00 0.00 15 1013.9
20260905021737 77 198 5.0 11.0 0.00 0.00 0.00 15 1013.8
20260905021230 78 200 6.0 13.0 0.00 0.00 0.00 14 1013.8
20260905020724 79 209 8.0 14.0 0.00 0.00 0.00 14 1013.7
20260905020239 79 205 11.0 16.0 0.00 0.00 0.00 13 1013.6
20260905015732 79 198 10.0 22.0 0.00 0.00 0.00 13 1013.6
20260905015226 80 210 12.0 23.0 0.00 0.00 0.00 12 1013.6
20260905014724 80 211 10.0 23.0 0.00 0.00 0.00 11 1013.5
20260905014216 80 213 13.0 22.0 0.00 0.00 0.00 11 1013.5
20260905013729 81 206 12.0 24.0 0.00 0.00 0.00 11 1013.5
20260905013224 81 225 15.0 24.0 0.00 0.00 0.00 11 1013.4
20260905012718 82 211 14.0 25.0 0.00 0.00 0.00 10 1013.4
20260905012232 82 214 18.0 25.0 0.00 0.00 0.00 10 1013.2
20260905011726 82 221 16.0 26.0 0.00 0.00 0.00 10 1013.3
20260905011240 82 231 16.0 30.0 0.00 0.00 0.00 10 1013.3
20260905010732 83 215 20.0 30.0 0.00 0.00 0.00 10 1013.3
20260905010227 83 228 20.0 28.0 0.00 0.00 0.00 10 1013.2
20260905005725 84 231 17.0 26.0 0.00 0.00 0.00 10 1013.1
20260905005219 84 242 15.0 30.0 0.00 0.00 0.00 10 1013.1
20260905004714 84 227 19.0 30.0 0.00 0.00 0.00 10 1013.1
20260905004228 84 215 18.0 30.0 0.00 0.00 0.00 10 1013.1
20260905003722 84 223 21.0 30.0 0.00 0.00 0.00 10 1013.1
20260905003215 85 246 17.0 27.0 0.00 0.00 0.00 10 1013.1
20260905002729 85 221 17.0 30.0 0.00 0.00 0.00 11 1013.0
20260905002227 85 214 19.0 30.0 0.00 0.00 0.00 11 1013.0
20260905001721 85 234 20.0 34.0 0.00 0.00 0.00 11 1013.0
20260905001216 85 240 21.0 34.0 0.00 0.00 0.00 11 1013.1
20260905000730 85 227 17.0 27.0 0.00 0.00 0.00 11 1013.1
20260905000245 86 206 21.0 30.0 0.00 0.00 0.00 11 1013.0
20260904235717 86 223 18.0 30.0 0.00 0.00 0.00 10 1013.0
20260904235231 86 213 19.0 33.0 0.00 0.00 0.00 10 1013.0
20260904234724 86 207 18.0 33.0 0.00 0.00 0.00 10 1013.0
20260904234218 86 255 20.0 31.0 0.00 0.00 0.00 10 1013.1
20260904233716 86 221 20.0 31.0 0.00 0.00 0.00 10 1013.0
20260904233230 87 204 21.0 29.0 0.00 0.00 0.00 10 1013.1
20260904232744 87 201 17.0 28.0 0.00 0.00 0.00 10 1013.0
20260904232218 86 239 16.0 31.0 0.00 0.00 0.00 10 1013.0
20260904231752 87 228 21.0 31.0 0.00 0.00 0.00 10 1013.1
20260904231225 87 218 19.0 31.0 0.00 0.00 0.00 10 1013.0
20260904230719 87 222 18.0 25.0 0.00 0.00 0.00 10 1013.1
20260904230233 87 228 20.0 25.0 0.00 0.00 0.00 10 1013.2
20260904225746 87 227 19.0 28.0 0.00 0.00 0.00 9 1013.2
20260904225219 87 213 14.0 27.0 0.00 0.00 0.00 10 1013.1
20260904224737 88 231 17.0 30.0 0.00 0.00 0.00 9 1013.3
20260904224230 88 217 14.0 30.0 0.00 0.00 0.00 10 1013.3
20260904223724 87 211 16.0 28.0 0.00 0.00 0.00 10 1013.4
20260904223218 87 214 20.0 28.0 0.00 0.00 0.00 9 1013.5
20260904222732 87 214 14.0 24.0 0.00 0.00 0.00 9 1013.5
20260904222226 87 219 14.0 24.0 0.00 0.00 0.00 9 1013.5
20260904221740 87 188 19.0 28.0 0.00 0.00 0.00 9 1013.6
20260904221233 87 212 18.0 28.0 0.00 0.00 0.00 9 1013.7
20260904220726 87 228 15.0 27.0 0.00 0.00 0.00 9 1013.7
20260904220226 87 217 18.0 26.0 0.00 0.00 0.00 9 1013.7
20260904215719 87 229 16.0 25.0 0.00 0.00 0.00 9 1013.8
20260904215233 87 229 18.0 25.0 0.00 0.00 0.00 8 1013.9
20260904214727 87 238 15.0 25.0 0.00 0.00 0.00 9 1013.8
20260904214221 87 228 18.0 26.0 0.00 0.00 0.00 8 1013.9
20260904213715 87 244 15.0 28.0 0.00 0.00 0.00 9 1013.8
20260904213229 87 236 19.0 30.0 0.00 0.00 0.00 8 1013.9
20260904212727 87 208 14.0 30.0 0.00 0.00 0.00 9 1014.0
20260904212220 88 236 13.0 26.0 0.00 0.00 0.00 8 1014.0